Home   Weather   Gulfport   Past weeks
Flag for USA

Past Weather in Gulfport, Mississippi, USA — Yesterday and Last 2 Weeks

Now
59 °F

Fog.


Feels Like: 59 °F
Forecast: 68 / 56 °F
Wind: No wind

Location: Gulfport-Biloxi Regional Airport

Current Time: Dec 8, 2019 at 8:19:36 pm

Latest Report: Dec 8, 2019 at 7:28 pm


Visibility: 3 mi

Pressure: 30.03 "Hg

Humidity: 93%

Dew Point: 57 °F

Location of GulfportLocation

Past Weather in Gulfport — Graph

°F

Gulfport Temperature Yesterday

Maximum temperature yesterday: 62 °F (at 12:53 am)
Minimum temperature yesterday: 56 °F (at 7:53 pm)
Average temperature yesterday: 59 °F

High & Low Weather Summary for the Past Weeks

 TemperatureHumidityPressure
High75 °F (Nov 27, 1:53 pm)93% (Nov 27, 12:53 am)30.33 "Hg (Nov 27, 12:53 am)
Low32 °F (Dec 3, 6:53 am)23% (Dec 1, 1:53 pm)29.80 "Hg (Dec 1, 2:53 am)
Average57 °F72%30.05 "Hg
* Reported Nov 23 7:53 pm — Dec 8 7:15 pm, Gulfport. Weather by CustomWeather, © 2019

Note: Actual official high and low records may vary slightly from our data, if they occured in-between our weather recording intervals... More about our weather records

Gulfport Weather History for the Previous 24 Hours

Scroll right to see more
 ConditionsComfort  
Time TempWeatherWind HumidityBarometerVisibility
7:15 pm
Sun, Dec 8
60 °FFog.No wind90%30.03 "Hg1 mi
5:53 pm64 °FMostly cloudy.No wind87%30.02 "Hg10 mi
4:53 pm65 °FMostly cloudy.No wind85%30.02 "Hg10 mi
4:21 pm65 °FPartly sunny.No wind85%30.03 "Hg10 mi
4:01 pm65 °FBroken clouds.7 mph85%30.03 "Hg10 mi
3:35 pm65 °FLow clouds.3 mph85%30.04 "Hg10 mi
2:53 pm66 °FOvercast.No wind81%30.04 "Hg10 mi
1:53 pm66 °FOvercast.No wind78%30.04 "Hg10 mi
12:53 pm65 °FOvercast.No wind78%30.07 "Hg10 mi
12:00 pm63 °FOvercast.No wind81%30.10 "Hg10 mi
10:53 am64 °FLow clouds.No wind73%30.14 "Hg10 mi
9:53 am62 °FLow clouds.5 mph75%30.15 "Hg8 mi
9:11 am59 °FLow clouds.5 mph78%30.16 "Hg10 mi
7:53 am57 °FOvercast.3 mph81%30.15 "Hg10 mi
7:40 am56 °FOvercast.6 mph84%30.15 "Hg10 mi
6:53 am54 °FPartly sunny.No wind86%30.14 "Hg10 mi
5:53 am55 °FMostly cloudy.3 mph83%30.14 "Hg10 mi
4:53 am56 °FOvercast.No wind81%30.13 "Hg10 mi
3:53 am56 °FOvercast.No wind81%30.13 "Hg10 mi
2:53 am56 °FOvercast.5 mph81%30.12 "Hg10 mi
1:53 am55 °FOvercast.3 mph83%30.13 "Hg10 mi
12:53 am56 °FOvercast.3 mph77%30.14 "Hg10 mi
12:25 am56 °FMostly cloudy.No wind77%30.15 "Hg10 mi
11:53 pm
Sat, Dec 7
56 °FMostly cloudy.No wind77%30.16 "Hg10 mi
10:53 pm57 °FOvercast.5 mph74%30.17 "Hg10 mi
9:53 pm57 °FOvercast.6 mph74%30.18 "Hg10 mi
8:53 pm56 °FOvercast.5 mph77%30.19 "Hg10 mi
Weather by CustomWeather, © 2019

See weather overview

Advertising